Flag for Austria Weather past 2 weeks in Traun, Upper Austria, Austria

Now
70 °F

Partly sunny.


Feels Like: 70 °F
Forecast: 54 / 71 °F
Wind: 3 mph from Northeast

Location: Linz / Hoersching-Flughafen

Current Time: Apr 25, 2015 at 2:13:19 PM

Latest Report: Apr 25, 2015 at 1:50 PM


Visibility: N/A

Pressure: 29.86 "Hg

Humidity: 35%

Dew point: 41 °F

Location of TraunLocation

Historic Weather in Traun — Graph

°F

Traun temperature yesterday

Maximum temperature yesterday: 64 °F (at 6:20 PM)
Minimum temperature yesterday: 41 °F (at 1:20 AM)
Average temperature yesterday: 51 °F

Past Weeks' High & Low Weather Summary

 TemperatureHumidityPressure
High73 °F (Apr 15, 4:50 PM)100% (Apr 23, 11:50 PM)30.45 "Hg (Apr 23, 11:50 PM)
Low34 °F (Apr 19, 5:50 AM)27% (Apr 10, 5:50 PM)29.83 "Hg (Apr 17, 3:50 PM)
Average53 °F63%30.15 "Hg
* Reported Apr 10 12:20 PM — Apr 25 12:50 PM, Traun, Weather by CustomWeather, © 2015

Note: Actual official high and low records may vary slightly from our data, if they occured in-between our weather recording intervals... More about our weather records

Advertising

Traun weather history for previous 24 hours

 ConditionsComfort  
Time TempWeatherWind HumidityBarometerVisibility
12:50 PM
Sat, Apr 25
66 °FPartly sunny.2 mph40%29.89 "HgN/A
12:20 PM64 °FSunny.2 mph43%29.89 "Hg10 mi
11:50 AM63 °FSunny.2 mph45%29.92 "Hg10 mi
11:20 AM61 °FSunny.2 mph52%29.92 "Hg10 mi
10:50 AM59 °FPassing clouds.3 mph51%29.92 "HgN/A
10:20 AM55 °FPassing clouds.3 mph63%29.92 "HgN/A
9:50 AM55 °FSunny.2 mph67%29.95 "Hg10 mi
9:20 AM52 °FPassing clouds.3 mph67%29.95 "HgN/A
8:50 AM50 °FSunny.2 mph76%29.95 "Hg10 mi
8:20 AM48 °FSunny.2 mph76%29.95 "Hg10 mi
7:50 AM46 °FFog.1 mph82%29.95 "HgN/A
7:20 AM43 °FFog.1 mph93%29.95 "HgN/A
6:50 AM39 °FFog.1 mph100%29.95 "HgN/A
6:20 AM39 °FLight fog.1 mph100%29.95 "Hg6 mi
5:50 AM39 °FSleet. Overcast.1 mph100%29.95 "HgN/A
5:20 AM41 °FFog.1 mph93%29.95 "HgN/A
4:50 AM39 °FFog.1 mph100%29.95 "HgN/A
4:20 AM41 °FClear.1 mph93%29.95 "Hg10 mi
3:50 AM41 °FClear.No wind100%29.95 "Hg10 mi
3:20 AM41 °FSleet. Overcast.1 mph100%29.95 "HgN/A
2:50 AM43 °FQuite cool.1 mph93%29.95 "Hg6 mi
2:20 AM43 °FQuite cool.1 mph93%29.95 "HgN/A
1:50 AM43 °FQuite cool.1 mph93%29.95 "HgN/A
1:20 AM46 °FCool.3 mph82%29.95 "HgN/A
12:50 AM46 °FCool.2 mph82%29.95 "HgN/A
12:20 AM46 °FCool.1 mph82%29.95 "HgN/A
11:50 PM
Fri, Apr 24
48 °FCool.2 mph76%29.95 "HgN/A
11:20 PM48 °FCool.1 mph76%29.95 "HgN/A
10:50 PM50 °FClear.1 mph76%29.95 "Hg10 mi
10:20 PM52 °FClear.1 mph72%29.95 "Hg10 mi
9:50 PM54 °FClear.2 mph67%29.95 "Hg10 mi
9:20 PM55 °FClear.1 mph59%29.95 "Hg10 mi
8:50 PM55 °FSunny.1 mph59%29.95 "Hg10 mi
8:20 PM59 °FSunny.3 mph51%29.95 "Hg10 mi
7:50 PM61 °FSunny.3 mph45%29.95 "Hg10 mi
7:20 PM63 °FSunny.2 mph45%29.95 "Hg10 mi
6:50 PM63 °FSunny.2 mph45%29.95 "Hg10 mi
6:20 PM64 °FSunny.2 mph40%29.95 "Hg10 mi
5:50 PM63 °FPassing clouds.1 mph42%29.95 "HgN/A
5:20 PM63 °FPassing clouds.3 mph45%29.95 "HgN/A
4:50 PM63 °FPassing clouds.3 mph42%29.98 "HgN/A
4:20 PM63 °FPassing clouds.2 mph49%29.98 "HgN/A
3:50 PM61 °FPassing clouds.5 mph45%29.98 "HgN/A
3:20 PM61 °FPassing clouds.5 mph45%30.01 "HgN/A
2:50 PM59 °FPassing clouds.5 mph48%30.01 "HgN/A
2:20 PM59 °FPassing clouds.1 mph55%30.01 "HgN/A
Weather by CustomWeather, © 2015

See weather overviewHow to use our weather pages